Weather in Syamzha

Russia / Vologda Oblast     60°01′02″N   41°04′22″E
temp.,
°C
wind,
m/s
gust,
m/s
humid.,
%
clouds,
%
prec.,
mm/h
press.,
hPa
HPBL,
m
27 october, wed
wed2700:00+2sw3996100 0.0 1011384
03:00+2sw3997100 0.0 1009344
06:00+2ssw31096100 0.0 1008393
09:00+2ssw41195100 0.0 1006520
12:00+3sw41193100 0.0 1004644
15:00+2sw41197100 0.3 1002777
18:00+3wsw41297100 0.4 1002801
21:00+5w4119081 0.7 1002813
28 october, thu
thu2800:00+4w41194100 1.1 1004880
03:00+4wnw4108785 1.3 1005796
06:00+3wnw3991100 0.0 1006453
09:00+2n3690100 0.0 1008623
12:00+1nne468089 0.0 1012809
15:00−1nne48765 0.0 1016713
18:00−3nne39815 0.0 1021518
21:00−4n26885 0.0 1024312
29 october, fri
fri2900:00−4nnw11895 0.0 102765
03:00−4sse118894 0.0 102848
06:00−4s2682100 0.0 1028286
09:00−3s41173100 0.0 1027481
12:00−1s51461100 0.1 1024640
15:00−1ssw61794100 3.1 1020793
18:00+2sw51593100 2.9 1018759
21:00+5wsw51495100 3.1 1017673
30 october, sat
sat3000:00+6wsw51396100 0.0 1017654
03:00+6wsw51397100 0.0 1018616
06:00+5wsw4149662 0.0 1018489
09:00+5wsw4149670 0.0 1019452
12:00+7wsw51394100 0.0 1019579
15:00+7wsw41192100 0.1 1020724
18:00+8wsw31089100 0.0 1020426
21:00+5sw31095100 0.0 1021306
31 october, sun
sun3100:00+4sw4129169 0.0 1020333
03:00+4sw4139174 0.0 1020343
06:00+4sw4139278 0.0 1019410
09:00+4sw41493100 0.0 1019471
12:00+7sw5138861 0.0 1018526
15:00+7wsw41290100 0.0 1018566
18:00+6sw41193100 0.0 1018544
21:00+5sw41295100 0.0 1018411